Location: Newark
(47.8167°N, 6.1833°E)
Time: 19:43:39
(UTC+00:00)

N. Korean satellite - Pass Details

Date: 24 September 2020
Orbit: 452 x 505 km, 97.2° (Epoch: 28 October)

Event Time Altitude Azimuth Distance (km) Brightness Sun altitude
Rises 04:10:02 0° 29° (NNE) 2,602 11.0 -13.3°
Reaches altitude 10° 04:12:50 10° 52° (NE) 1,703 10.4 -12.8°
Maximum altitude 04:15:05 15° 90° (E) 1,382 10.1 -12.5°
Drops below altitude 10° 04:17:18 10° 129° (SE) 1,676 9.8 -12.1°
Sets 04:20:02 0° 152° (SSE) 2,538 10.4 -11.7°
